Location: Tucson
(32.2217°N, 110.9265°W)
Time: 18:49:09
(UTC-07:00)

N. Korean satellite - Pass Details

Date: 07 October 2021
Orbit: 450 x 495 km, 97.3° (Epoch: 22 October)

Event Time Altitude Azimuth Distance (km) Brightness Sun altitude
Rises 05:03:39 0° 23° (NNE) 2,568 10.6 -17.4°
Reaches altitude 10° 05:05:53 10° 34° (NE) 1,687 9.8 -16.9°
Maximum altitude 05:09:08 31° 98° (E) 891 8.6 -16.2°
Drops below altitude 10° 05:12:23 10° 161° (SSE) 1,684 9.5 -15.5°
Sets 05:14:37 0° 172° (S) 2,561 10.3 -15.1°
